Weather History for PAOM - September, 2011

Change the Weather History Date:

Tuesday, September 27, 2011

  Actual Average Record
Temperature  
Mean Temperature 35 °F 38 °F  
Max Temperature 42 °F 44 °F 55 °F (1984)
Min Temperature 28 °F 32 °F 18 °F (1992)
Degree Days  
Heating Degree Days 30 27  
Month to date heating degree days 501 581  
Since 1 July heating degree days 1517 1445  
Cooling Degree Days 0    
Month to date cooling degree days 0  
Year to date cooling degree days 0  
Moisture  
Dew Point 28 °F    
Average Humidity 0    
Maximum Humidity 0    
Minimum Humidity 0    
Precipitation  
Precipitation 0.00 in 0.07 in 1.13 in (1925)
Month to date precipitation 0.89 2.25  
Year to date precipitation 14.23 12.70  
Snow  
Snow 0.00 in 0.00 in 0.80 in (2004)
Month to date snowfall 0.0 0.4  
Since 1 July snowfall 0.0 0.4  
Since 1 September snowfall 0.0 0.4  
Snow Depth 0.00 in    
Sea Level Pressure  
Sea Level Pressure 29.68 in    
Wind  
Wind Speed 7 mph (WNW)    
Max Wind Speed 13 mph    
Max Gust Speed 15 mph    
Visibility 10 miles    
Events      
T = Trace of Precipitation, MM = Missing Value Source: NWS Daily Summary

Daily Weather History Graph

Daily Weather History Graph

Search for Another Location

Airport or City:

Trip Planner

Search our weather history database for the weather conditions in past years. The results will help you decide how hot, cold, wet, or windy it might be!

Date:

Astronomy

Sep. 27, 2011 Rise Set
Actual Time 8:59 AM AKDT 8:44 PM AKDT
Civil Twilight 8:10 AM AKDT 9:32 PM AKDT
Nautical Twilight 7:12 AM AKDT 10:30 PM AKDT
Astronomical Twilight 6:08 AM AKDT 11:34 PM AKDT
Moon 10:05 AM AKDT (9/27) 7:56 PM AKDT (9/27)
Length of Visible Light 13h 21m
Length of Day
11h 45m
New Moon, 0% of the Moon is Illuminated
Sep 27
New Moon
Oct 3
First Quarter
Oct 11
Full
Oct 19
Last Quarter
Oct 26
New

Hourly Weather History & Observations

Time (AKDT) Temp. Windchill Dew Point Humidity Pressure Visibility Wind Dir Wind Speed Gust Speed Precip Events Conditions
12:53 AM 37.0 °F 32.4 °F 34.0 °F 89% 29.63 in 10.0 mi WNW 5.8 mph - N/A   Overcast
1:53 AM 35.1 °F 27.4 °F 32.0 °F 89% 29.63 in 10.0 mi WNW 10.4 mph - N/A   Scattered Clouds
2:53 AM 34.0 °F 27.2 °F 30.0 °F 85% 29.63 in 10.0 mi WNW 8.1 mph - N/A   Scattered Clouds
3:53 AM 30.9 °F 24.3 °F 28.0 °F 89% 29.63 in 10.0 mi WNW 6.9 mph - N/A   Scattered Clouds
4:53 AM 30.0 °F 21.7 °F 28.0 °F 92% 29.63 in 10.0 mi WNW 9.2 mph - N/A   Scattered Clouds
5:48 AM 30.2 °F 23.4 °F 28.4 °F 93% 29.64 in 10.0 mi NW 6.9 mph - N/A   Mostly Cloudy
5:53 AM 30.0 °F 22.4 °F 28.0 °F 92% 29.65 in 10.0 mi WNW 8.1 mph - N/A   Mostly Cloudy
6:53 AM 30.9 °F 23.5 °F 27.0 °F 85% 29.65 in 10.0 mi WNW 8.1 mph - N/A   Mostly Cloudy
7:53 AM 30.0 °F 24.1 °F 25.0 °F 82% 29.66 in 10.0 mi WNW 5.8 mph - N/A   Mostly Cloudy
8:28 AM 28.4 °F 23.3 °F 24.8 °F 86% 29.66 in 10.0 mi NW 4.6 mph - N/A   Mostly Cloudy
8:53 AM 28.0 °F 20.0 °F 24.1 °F 85% 29.66 in 10.0 mi WNW 8.1 mph - N/A   Mostly Cloudy
9:53 AM 30.0 °F 24.1 °F 25.0 °F 82% 29.66 in 10.0 mi WNW 5.8 mph - N/A   Scattered Clouds
10:53 AM 32.0 °F 28.7 °F 27.0 °F 82% 29.67 in 10.0 mi NW 3.5 mph - N/A   Scattered Clouds
11:53 AM 36.0 °F 32.1 °F 27.0 °F 70% 29.68 in 10.0 mi NW 4.6 mph - N/A   Scattered Clouds
12:53 PM 39.0 °F 35.7 °F 25.0 °F 57% 29.68 in 10.0 mi WNW 4.6 mph - N/A   Partly Cloudy
1:53 PM 39.9 °F - 25.0 °F 55% 29.68 in 10.0 mi Calm Calm - N/A   Overcast
2:53 PM 39.9 °F 35.1 °F 30.0 °F 68% 29.68 in 10.0 mi WSW 6.9 mph - N/A   Mostly Cloudy
3:53 PM 39.9 °F 35.1 °F 32.0 °F 73% 29.68 in 10.0 mi WSW 6.9 mph - N/A   Overcast
4:53 PM 41.0 °F 36.4 °F 32.0 °F 70% 29.69 in 10.0 mi WSW 6.9 mph - N/A   Overcast
5:53 PM 41.0 °F 37.1 °F 33.1 °F 73% 29.69 in 10.0 mi WSW 5.8 mph - N/A   Overcast
6:53 PM 39.9 °F 33.9 °F 32.0 °F 73% 29.70 in 10.0 mi WNW 9.2 mph - N/A   Overcast
7:53 PM 39.9 °F 33.4 °F 30.9 °F 70% 29.71 in 10.0 mi NW 10.4 mph - N/A   Overcast
8:53 PM 39.0 °F 33.4 °F 28.9 °F 67% 29.73 in 10.0 mi North 8.1 mph - N/A   Overcast
9:53 PM 37.9 °F 33.5 °F 28.0 °F 68% 29.74 in 10.0 mi NNE 5.8 mph - N/A   Overcast
10:53 PM 35.1 °F 32.2 °F 26.1 °F 70% 29.75 in 10.0 mi NNW 3.5 mph - N/A   Scattered Clouds
11:53 PM 32.0 °F 26.4 °F 28.0 °F 85% 29.76 in 10.0 mi NW 5.8 mph - N/A   Scattered Clouds